Wind_Speed
55 52 49 49 50 52 55 56 55 54 52 50 48 46 45 44 45 46 49 51 54 57 60 61 63 63 62 60 58 56 55 54 51 44 40 39 40 40 37 32 29 28 28
51 49 47 49 51 53 53 52 52 51 49 48 46 45 45 46 48 51 54 56 59 61 63 63 63 62 59 57 54 52 50 48 44 39 36 35 36 35 31 28 25 25 25
49 48 50 52 51 51 50 50 50 49 47 46 45 46 47 50 52 55 57 59 61 63 64 63 61 58 55 53 50 47 44 41 39 36 32 31 31 30 26 23 22 22 23
52 52 51 50 50 49 49 49 48 47 46 46 47 48 51 53 56 58 59 60 61 62 61 58 55 52 49 46 43 41 38 36 34 31 27 26 26 25 21 20 20 21 22
50 50 50 50 49 49 48 48 47 46 46 47 49 52 55 57 58 59 60 60 59 57 53 50 48 45 42 39 37 34 32 30 28 25 22 21 21 20 18 18 18 19 20
49 49 49 49 48 48 47 46 46 46 48 50 53 55 57 58 58 58 58 56 54 50 46 44 42 39 35 31 28 27 26 24 22 20 17 17 16 16 16 16 16 17 18
47 47 47 46 47 46 46 46 46 48 51 53 54 55 56 56 56 54 53 51 48 44 40 38 35 32 27 23 22 22 22 19 17 15 14 13 12 12 12 12 13 13 14
44 45 45 46 45 45 45 46 48 51 52 53 54 54 54 53 52 50 48 45 41 38 35 32 30 27 23 21 21 20 17 14 12 11 11 10 9 8 8 8 9 9 10
43 44 44 44 44 45 46 48 50 52 53 53 53 52 51 49 47 44 41 38 36 35 33 30 26 23 20 19 17 15 12 9 9 11 10 8 7 7 6 6 6 5 5
43 43 42 42 43 45 47 49 50 51 52 51 51 49 47 44 42 39 36 35 35 33 30 26 22 19 17 15 13 10 8 9 10 11 10 8 7 7 7 6 5 3 1
41 40 40 41 43 45 48 49 49 50 50 49 48 46 43 40 38 36 35 34 32 29 25 21 17 14 11 9 6 6 8 10 11 11 10 10 10 10 9 8 5 4 4
37 37 39 41 43 46 47 47 47 47 46 45 44 42 40 37 35 33 32 30 27 22 18 14 11 7 4 3 5 8 10 12 13 12 12 12 12 12 11 8 7 7 9
34 36 39 41 43 44 44 44 44 43 42 41 40 38 36 33 31 29 27 24 21 18 14 10 6 2 3 6 9 12 13 14 14 14 13 13 13 12 10 8 9 12 15
33 36 39 41 42 42 41 40 40 39 39 37 35 34 31 28 26 24 22 19 17 15 11 7 5 6 9 12 14 15 16 17 17 16 16 15 14 12 10 10 12 16 18
33 36 38 39 39 38 38 37 37 36 35 33 31 29 27 24 22 19 18 16 15 12 10 7 8 11 15 17 17 18 18 19 19 18 17 16 13 11 10 12 16 19 21
34 35 37 37 36 36 35 35 34 33 32 30 28 26 24 21 19 17 17 16 14 13 11 10 12 15 18 19 20 20 19 19 18 17 16 14 12 11 12 15 19 21 23
33 34 35 36 36 35 34 32 32 31 30 28 27 24 21 18 17 16 16 15 14 14 12 12 15 18 20 21 21 20 18 17 16 14 13 12 13 13 15 18 20 22 23
32 34 35 36 35 33 31 29 28 28 28 27 25 22 18 16 16 16 14 13 13 13 12 13 16 19 21 21 20 19 17 15 14 13 13 13 14 15 18 21 21 23 23
33 35 35 35 33 29 27 25 25 25 26 25 23 20 17 14 15 16 14 12 12 13 13 14 17 19 20 20 19 18 16 14 13 13 13 14 15 17 21 23 23 24 24
34 35 34 32 29 26 23 22 22 23 24 24 21 18 16 14 14 14 13 12 12 13 14 15 17 18 19 19 18 16 14 13 13 13 14 15 17 20 23 25 26 26 25
33 33 31 28 25 22 20 20 21 22 23 22 20 18 16 15 14 15 14 12 12 13 15 16 16 17 17 16 15 14 14 13 13 13 14 16 18 21 24 25 25 24 23
31 30 28 27 24 21 19 19 20 22 23 22 20 19 18 16 15 15 15 13 12 13 15 16 16 16 16 15 15 14 13 13 14 14 14 16 18 20 22 23 22 21 21
31 29 28 26 23 21 19 19 21 23 23 22 20 19 18 17 16 15 15 14 13 13 14 15 16 15 15 15 13 13 13 13 14 15 15 16 18 19 20 20 20 19 18
32 30 28 26 24 22 20 21 22 24 24 23 21 19 17 17 17 16 15 14 13 13 14 15 15 15 15 14 13 12 12 12 13 14 15 16 16 17 17 17 16 16 15
34 33 30 28 26 24 22 23 24 25 26 25 23 21 19 18 17 17 16 15 14 13 14 14 14 14 14 13 12 11 11 11 12 12 14 15 15 15 15 15 14 13 12
36 35 32 30 28 27 25 25 26 26 27 26 25 23 21 20 19 18 17 16 15 14 13 13 13 13 13 12 11 10 10 10 10 11 12 13 13 13 13 13 12 12 11
Wind_Direction
291 292 296 301 306 308 308 308 309 310 312 312 310 308 306 304 303 302 302 301 300 299 298 297 296 295 294 293 291 290 289 290 290 288 281 273 267 265 265 266 263 256 251
290 295 302 308 310 310 309 309 310 311 311 310 308 306 305 305 305 304 304 303 302 301 299 298 297 296 294 291 290 289 288 289 288 285 279 270 263 261 262 262 257 250 249
302 308 313 313 312 310 310 311 311 311 310 309 308 307 307 307 307 306 305 304 303 302 301 300 298 296 293 291 289 287 286 286 285 283 275 264 258 257 257 255 251 249 250
310 313 314 312 311 310 311 312 312 311 309 309 309 309 310 309 309 308 307 306 304 304 303 302 300 297 294 291 288 286 285 285 284 280 269 258 253 252 249 248 249 250 251
312 314 313 312 312 312 312 312 311 310 310 311 312 312 312 311 310 309 308 307 307 307 307 306 303 301 297 292 288 285 283 283 281 274 264 251 247 245 243 245 247 251 253
312 313 312 312 313 313 313 312 311 312 314 315 315 314 313 312 311 310 310 310 309 310 310 308 306 304 300 294 289 286 283 280 275 268 254 241 239 239 240 241 245 250 254
311 311 312 313 314 314 313 313 314 315 316 316 315 314 312 312 312 312 312 311 311 311 311 309 308 306 301 295 291 290 285 275 266 252 235 230 230 232 232 235 241 246 250
311 312 314 315 315 314 314 315 316 317 317 316 315 314 314 314 314 314 313 312 312 313 312 310 309 305 299 295 294 290 282 266 245 224 213 212 213 215 216 223 230 235 245
311 314 315 315 315 315 316 317 317 317 316 315 315 316 317 317 317 316 315 315 314 314 312 309 306 302 297 295 292 282 268 237 207 194 186 187 191 194 198 200 205 218 242
313 315 314 314 314 316 317 318 318 317 317 317 318 320 321 320 319 319 318 317 317 316 313 308 304 299 294 292 284 264 234 195 178 169 169 172 171 170 166 161 163 175 209
313 313 313 314 316 318 319 319 318 318 319 321 322 323 324 323 322 322 321 320 320 319 317 312 306 300 294 284 259 214 182 168 159 156 158 157 155 153 148 141 133 120 106
312 312 313 316 319 320 320 320 321 322 324 325 326 327 327 327 326 326 325 325 326 327 327 323 317 308 289 239 186 164 155 151 149 150 151 150 150 147 139 128 116 108 109
311 313 317 320 321 322 322 324 326 327 328 329 330 330 331 331 331 331 331 333 337 340 341 343 346 4 128 142 144 142 142 142 143 145 148 148 146 140 129 119 112 111 113
314 318 321 323 323 325 326 328 330 331 332 333 334 335 336 338 338 340 342 347 351 353 357 10 48 98 120 126 130 132 135 138 141 143 144 142 139 133 123 118 118 118 118
320 323 324 325 326 328 331 333 335 335 336 337 338 341 344 347 348 351 354 356 1 8 24 54 89 112 119 123 126 128 132 136 137 138 138 138 134 128 122 121 122 123 124
326 327 327 328 330 332 334 336 338 340 341 342 345 348 351 354 355 359 2 6 15 28 46 76 104 116 121 124 125 128 133 135 135 134 132 130 128 126 125 126 126 126 126
330 329 330 331 333 334 336 338 340 343 346 348 350 353 356 360 3 5 8 13 24 38 58 88 110 120 123 126 127 130 133 132 130 128 128 127 126 126 128 130 130 128 126
333 333 333 333 334 335 337 339 343 347 351 353 355 358 1 5 9 12 15 23 34 45 68 95 115 123 126 128 129 130 130 127 123 121 122 125 127 128 132 133 131 130 125
337 336 335 334 335 336 339 343 348 353 356 358 0 3 7 12 16 19 26 36 44 56 77 100 119 128 131 132 133 131 127 124 119 116 118 124 129 132 135 134 131 130 127
341 339 338 338 340 343 348 353 357 0 3 5 7 10 15 22 26 30 39 51 57 66 83 103 120 130 133 135 135 133 128 123 121 118 119 123 129 135 138 135 131 129 127
345 345 347 350 353 356 0 4 7 8 10 13 18 22 27 33 38 42 49 59 68 76 89 104 119 131 136 137 137 135 130 126 125 123 121 123 130 137 141 140 136 133 132
354 357 1 3 6 9 13 15 15 15 17 21 27 31 36 41 46 49 56 65 74 82 91 103 116 129 137 137 134 132 129 128 129 127 123 126 130 136 142 146 145 142 139
8 10 11 13 16 21 24 24 22 21 23 27 31 36 42 46 51 55 61 67 75 83 90 101 111 123 133 137 137 134 130 129 130 130 129 129 131 135 140 146 149 149 149
20 20 21 24 27 29 31 29 28 28 30 32 36 40 45 50 54 59 64 69 76 84 90 98 108 118 128 135 137 136 135 134 133 134 134 134 134 136 140 145 150 153 155
28 29 30 32 34 36 36 35 34 34 36 38 42 46 50 53 57 62 67 71 77 86 92 97 105 114 122 129 135 137 137 138 141 141 141 141 139 139 141 144 148 152 156
34 35 36 37 38 39 39 38 38 39 40 42 45 49 52 55 60 65 70 75 78 84 91 97 102 108 114 123 131 137 140 142 144 147 150 150 149 147 146 147 150 153 157
Height
5745 5741 5737 5732 5727 5721 5713 5705 5697 5689 5680 5672 5665 5658 5652 5645 5640 5634 5627 5621 5615 5608 5601 5594 5588 5581 5575 5568 5563 5559 5555 5551 5550 5549 5545 5542 5540 5540 5541 5543 5544 5545 5546
5734 5730 5725 5720 5714 5707 5700 5692 5684 5676 5668 5661 5654 5647 5640 5634 5628 5621 5614 5606 5599 5591 5583 5576 5569 5563 5557 5551 5547 5543 5539 5536 5534 5534 5533 5530 5529 5529 5531 5533 5534 5536 5537
5724 5719 5714 5708 5701 5694 5687 5679 5671 5664 5656 5649 5642 5635 5628 5622 5614 5607 5599 5590 5582 5573 5565 5558 5551 5545 5540 5535 5531 5528 5525 5523 5521 5521 5520 5519 5519 5520 5523 5524 5526 5528 5529
5713 5707 5702 5695 5688 5681 5674 5666 5659 5652 5645 5637 5630 5622 5615 5608 5600 5592 5583 5574 5565 5556 5548 5540 5534 5528 5524 5520 5517 5514 5513 5511 5509 5508 5509 5510 5511 5512 5515 5517 5519 5520 5522
5702 5696 5690 5683 5676 5669 5662 5655 5648 5641 5633 5625 5617 5609 5601 5593 5585 5576 5567 5558 5549 5541 5533 5525 5519 5514 5510 5507 5504 5503 5501 5500 5499 5499 5500 5502 5504 5506 5508 5511 5513 5514 5515
5691 5685 5679 5672 5664 5657 5651 5644 5637 5629 5621 5613 5605 5596 5588 5579 5570 5561 5552 5543 5534 5527 5520 5513 5507 5502 5498 5496 5494 5493 5492 5492 5492 5492 5494 5496 5498 5501 5503 5505 5507 5509 5509
5680 5674 5667 5661 5654 5647 5640 5633 5625 5617 5609 5601 5592 5584 5575 5566 5557 5547 5538 5529 5522 5515 5509 5503 5498 5493 5490 5488 5487 5486 5485 5485 5485 5487 5489 5491 5494 5496 5499 5501 5502 5504 5505
5670 5664 5657 5650 5644 5637 5630 5622 5615 5607 5598 5589 5581 5572 5563 5553 5544 5535 5526 5518 5511 5505 5500 5495 5490 5486 5484 5483 5482 5480 5479 5480 5481 5483 5486 5489 5492 5494 5496 5498 5499 5501 5501
5661 5654 5648 5641 5635 5628 5620 5612 5604 5596 5587 5578 5569 5560 5551 5542 5533 5524 5517 5509 5503 5497 5492 5487 5483 5480 5478 5477 5476 5475 5476 5477 5479 5482 5485 5488 5490 5492 5494 5496 5498 5499 5500
5652 5646 5639 5633 5626 5619 5611 5603 5594 5585 5576 5567 5558 5549 5541 5532 5523 5515 5508 5502 5496 5489 5484 5480 5477 5475 5473 5472 5472 5472 5474 5476 5479 5482 5485 5487 5490 5492 5494 5496 5498 5499 5499
5644 5638 5632 5626 5618 5611 5602 5593 5585 5575 5566 5557 5548 5539 5531 5523 5515 5508 5501 5494 5488 5482 5477 5474 5471 5470 5469 5469 5470 5471 5473 5476 5479 5482 5485 5488 5490 5493 5495 5497 5499 5499 5500
5638 5632 5625 5618 5610 5602 5593 5584 5575 5566 5556 5547 5539 5530 5523 5515 5508 5501 5494 5488 5482 5477 5473 5470 5468 5467 5467 5468 5469 5472 5474 5477 5480 5484 5487 5490 5492 5495 5497 5499 5500 5501 5501
5632 5625 5618 5611 5603 5594 5585 5576 5567 5558 5549 5540 5532 5524 5517 5509 5503 5496 5490 5484 5479 5475 5471 5469 5467 5467 5467 5469 5471 5474 5476 5480 5483 5486 5489 5492 5495 5497 5499 5501 5502 5504 5504
5626 5619 5611 5604 5596 5587 5578 5569 5560 5552 5543 5535 5527 5520 5512 5505 5499 5493 5488 5483 5479 5475 5471 5469 5468 5468 5470 5472 5474 5477 5480 5482 5486 5489 5492 5495 5498 5500 5502 5504 5505 5507 5508
5620 5613 5605 5597 5589 5581 5572 5563 5555 5547 5539 5531 5524 5516 5510 5503 5497 5492 5487 5483 5479 5476 5473 5471 5471 5472 5473 5476 5478 5481 5484 5487 5490 5493 5496 5499 5501 5504 5505 5507 5508 5511 5513
5614 5607 5600 5592 5583 5575 5566 5559 5550 5543 5535 5528 5521 5514 5508 5502 5497 5492 5488 5484 5481 5477 5475 5474 5475 5476 5478 5480 5483 5486 5489 5492 5495 5498 5501 5503 5505 5507 5509 5510 5513 5515 5518
5609 5602 5594 5586 5578 5569 5562 5554 5547 5540 5533 5525 5519 5512 5507 5502 5498 5493 5490 5486 5483 5481 5479 5478 5479 5480 5483 5485 5488 5492 5495 5498 5500 5503 5505 5507 5509 5511 5513 5515 5518 5520 5523
5605 5597 5589 5580 5572 5565 5558 5551 5544 5537 5531 5524 5518 5512 5507 5503 5499 5495 5492 5489 5487 5485 5483 5483 5484 5486 5488 5491 5494 5497 5500 5503 5505 5507 5509 5511 5513 5515 5517 5520 5523 5526 5529
5601 5592 5584 5575 5568 5560 5554 5548 5542 5536 5529 5523 5517 5512 5508 5504 5501 5497 5494 5492 5491 5489 5488 5487 5489 5491 5493 5496 5499 5502 5504 5507 5509 5511 5513 5515 5517 5520 5522 5526 5529 5532 5535
5597 5588 5579 5571 5563 5557 5551 5546 5541 5535 5530 5523 5518 5513 5509 5505 5503 5500 5497 5496 5494 5493 5492 5492 5494 5496 5499 5501 5504 5507 5509 5511 5514 5516 5518 5519 5522 5524 5528 5531 5534 5538 5541
5593 5584 5575 5567 5560 5554 5550 5545 5541 5536 5530 5525 5519 5514 5511 5507 5505 5503 5501 5499 5498 5498 5497 5497 5499 5501 5504 5506 5509 5511 5514 5516 5518 5520 5522 5524 5526 5529 5533 5536 5540 5543 5547
5591 5582 5573 5566 5560 5554 5550 5546 5542 5537 5532 5526 5521 5517 5514 5511 5508 5506 5505 5503 5503 5503 5502 5503 5504 5506 5508 5511 5513 5516 5518 5520 5522 5524 5527 5529 5531 5534 5538 5541 5545 5548 5552
5590 5581 5574 5567 5561 5556 5552 5548 5544 5539 5534 5529 5525 5521 5518 5515 5512 5510 5509 5508 5507 5507 5508 5508 5509 5511 5513 5515 5518 5520 5522 5524 5526 5529 5531 5533 5536 5539 5543 5546 5549 5553 5556
5591 5583 5576 5569 5564 5559 5556 5552 5547 5543 5537 5532 5528 5524 5521 5519 5516 5514 5513 5512 5512 5512 5513 5513 5515 5516 5518 5520 5522 5524 5526 5528 5530 5533 5535 5538 5541 5544 5547 5550 5553 5556 5559
5593 5586 5580 5574 5569 5564 5560 5556 5551 5546 5541 5536 5532 5528 5525 5523 5521 5519 5518 5517 5517 5517 5518 5518 5519 5521 5522 5524 5526 5528 5530 5532 5534 5537 5539 5542 5545 5548 5551 5554 5556 5559 5562
5598 5591 5585 5579 5574 5569 5565 5560 5556 5551 5546 5542 5537 5534 5530 5528 5525 5524 5522 5522 5522 5522 5523 5523 5524 5525 5527 5528 5530 5532 5533 5536 5538 5540 5543 5545 5548 5551 5553 5556 5559 5561 5564